TimeCST,TemperatureF,Dew PointF,Humidity,Sea Level PressureIn,VisibilityMPH,Wind Direction,Wind SpeedMPH,Gust SpeedMPH,PrecipitationIn,Events,Conditions,WindDirDegrees,DateUTC
12:13 AM,46.4,35.6,66,30.04,10.0,SSE,10.4,-,N/A,,Clear,160,2012-11-19 06:13:00
12:33 AM,46.4,35.6,66,30.04,10.0,SSE,10.4,-,N/A,,Clear,160,2012-11-19 06:33:00
12:53 AM,46.4,35.6,66,30.04,10.0,SSE,10.4,-,N/A,,Scattered Clouds,160,2012-11-19 06:53:00
1:13 AM,48.2,35.6,62,30.03,10.0,SSE,9.2,-,N/A,,Mostly Cloudy,160,2012-11-19 07:13:00
1:33 AM,48.2,35.6,62,30.03,10.0,SSE,10.4,-,N/A,,Overcast,160,2012-11-19 07:33:00
1:53 AM,48.2,35.6,62,30.03,10.0,SSE,10.4,-,N/A,,Overcast,160,2012-11-19 07:53:00
2:12 AM,48.2,35.6,62,30.03,10.0,SSE,9.2,-,N/A,,Overcast,160,2012-11-19 08:12:00
2:33 AM,48.2,35.6,62,30.02,10.0,SSE,10.4,-,N/A,,Overcast,160,2012-11-19 08:33:00
2:53 AM,48.2,35.6,62,30.02,10.0,SSE,11.5,-,N/A,,Overcast,160,2012-11-19 08:53:00
3:12 AM,50.0,35.6,58,30.02,10.0,SSE,10.4,-,N/A,,Overcast,160,2012-11-19 09:12:00
3:33 AM,51.8,37.4,58,30.02,10.0,South,10.4,16.1,N/A,,Mostly Cloudy,170,2012-11-19 09:33:00
3:53 AM,51.8,37.4,58,30.01,10.0,SSE,11.5,-,N/A,,Overcast,160,2012-11-19 09:53:00
4:12 AM,51.8,37.4,58,30.00,10.0,South,12.7,17.3,N/A,,Mostly Cloudy,170,2012-11-19 10:12:00
4:33 AM,51.8,37.4,58,30.00,10.0,South,10.4,-,N/A,,Scattered Clouds,170,2012-11-19 10:33:00
4:53 AM,51.8,37.4,58,30.00,10.0,SSE,13.8,17.3,N/A,,Scattered Clouds,160,2012-11-19 10:53:00
5:12 AM,50.0,37.4,62,30.01,10.0,SSE,9.2,-,N/A,,Mostly Cloudy,150,2012-11-19 11:12:00
5:33 AM,48.2,37.4,66,30.02,10.0,SSE,10.4,-,N/A,,Mostly Cloudy,160,2012-11-19 11:33:00
5:53 AM,46.4,35.6,66,30.01,10.0,SSE,9.2,-,N/A,,Scattered Clouds,160,2012-11-19 11:53:00
6:12 AM,46.4,35.6,66,30.01,10.0,SSE,10.4,-,N/A,,Clear,160,2012-11-19 12:12:00
6:33 AM,46.4,35.6,66,30.00,10.0,SSE,11.5,-,N/A,,Clear,160,2012-11-19 12:33:00
6:53 AM,46.4,37.4,71,30.00,10.0,SSE,11.5,-,N/A,,Clear,160,2012-11-19 12:53:00
7:13 AM,46.4,37.4,71,30.01,10.0,SSE,10.4,-,N/A,,Clear,160,2012-11-19 13:13:00
7:33 AM,46.4,37.4,71,30.01,10.0,SSE,10.4,-,N/A,,Clear,160,2012-11-19 13:33:00
7:53 AM,46.4,37.4,71,30.01,10.0,South,12.7,-,N/A,,Clear,170,2012-11-19 13:53:00
8:12 AM,46.4,37.4,71,30.01,10.0,South,12.7,-,N/A,,Clear,170,2012-11-19 14:12:00
8:33 AM,48.2,37.4,66,30.01,10.0,SSE,12.7,16.1,N/A,,Clear,160,2012-11-19 14:33:00
8:53 AM,48.2,37.4,66,30.01,10.0,South,12.7,-,N/A,,Clear,170,2012-11-19 14:53:00
9:12 AM,48.2,37.4,66,30.01,10.0,South,12.7,-,N/A,,Clear,170,2012-11-19 15:12:00
9:33 AM,50.0,37.4,62,30.01,10.0,South,13.8,-,N/A,,Clear,180,2012-11-19 15:33:00
9:53 AM,51.8,37.4,58,30.02,10.0,South,10.4,-,N/A,,Clear,170,2012-11-19 15:53:00
10:12 AM,51.8,37.4,58,30.01,10.0,South,10.4,-,N/A,,Clear,190,2012-11-19 16:12:00
10:33 AM,53.6,39.2,58,30.02,10.0,South,8.1,-,N/A,,Clear,190,2012-11-19 16:33:00
10:53 AM,53.6,39.2,58,30.02,10.0,South,9.2,-,N/A,,Clear,190,2012-11-19 16:53:00
11:12 AM,55.4,39.2,54,30.02,10.0,SSW,8.1,-,N/A,,Clear,210,2012-11-19 17:12:00
11:33 AM,55.4,39.2,54,30.01,10.0,SSW,8.1,-,N/A,,Clear,210,2012-11-19 17:33:00
11:53 AM,55.4,39.2,54,30.00,10.0,SSW,6.9,-,N/A,,Clear,200,2012-11-19 17:53:00
12:13 PM,57.2,39.2,51,30.01,10.0,SW,5.8,-,N/A,,Clear,230,2012-11-19 18:13:00
12:33 PM,57.2,39.2,51,30.01,10.0,WSW,4.6,-,N/A,,Clear,250,2012-11-19 18:33:00
12:53 PM,57.2,39.2,51,30.00,10.0,South,4.6,-,N/A,,Clear,170,2012-11-19 18:53:00
1:13 PM,57.2,39.2,51,29.99,10.0,SSE,4.6,-,N/A,,Clear,150,2012-11-19 19:13:00
1:33 PM,57.2,39.2,51,29.99,10.0,Calm,Calm,-,N/A,,Clear,0,2012-11-19 19:33:00
1:53 PM,59.0,39.2,48,30.00,10.0,Calm,Calm,-,N/A,,Clear,0,2012-11-19 19:53:00
2:13 PM,59.0,39.2,48,29.99,10.0,Calm,Calm,-,N/A,,Clear,0,2012-11-19 20:13:00
2:33 PM,59.0,39.2,48,29.99,10.0,Calm,Calm,-,N/A,,Clear,0,2012-11-19 20:33:00
2:52 PM,59.0,39.2,48,29.99,10.0,South,3.5,-,N/A,,Clear,170,2012-11-19 20:52:00
3:13 PM,59.0,39.2,48,29.99,10.0,SSE,5.8,-,N/A,,Clear,150,2012-11-19 21:13:00
3:33 PM,59.0,39.2,48,30.00,10.0,Calm,Calm,-,N/A,,Clear,0,2012-11-19 21:33:00
3:52 PM,59.0,39.2,48,30.01,10.0,WSW,3.5,-,N/A,,Clear,240,2012-11-19 21:52:00
4:13 PM,57.2,39.2,51,30.01,10.0,Calm,Calm,-,N/A,,Clear,0,2012-11-19 22:13:00
4:33 PM,57.2,39.2,51,30.01,10.0,Calm,Calm,-,N/A,,Clear,0,2012-11-19 22:33:00
4:52 PM,55.4,39.2,54,30.02,10.0,Calm,Calm,-,N/A,,Clear,0,2012-11-19 22:52:00
5:13 PM,53.6,39.2,58,30.02,10.0,Calm,Calm,-,N/A,,Clear,0,2012-11-19 23:13:00
5:32 PM,50.0,37.4,62,30.03,10.0,Calm,Calm,-,N/A,,Clear,0,2012-11-19 23:32:00
5:53 PM,50.0,37.4,62,30.04,10.0,WNW,3.5,-,N/A,,Clear,290,2012-11-19 23:53:00
6:13 PM,48.2,37.4,66,30.04,10.0,NW,3.5,-,N/A,,Clear,310,2012-11-20 00:13:00
6:32 PM,48.2,37.4,66,30.05,10.0,NW,6.9,-,N/A,,Clear,310,2012-11-20 00:32:00
6:53 PM,48.2,37.4,66,30.05,10.0,NW,6.9,-,N/A,,Clear,320,2012-11-20 00:53:00
7:13 PM,46.4,39.2,76,30.06,10.0,NNW,6.9,-,N/A,,Clear,330,2012-11-20 01:13:00
7:32 PM,46.4,39.2,76,30.06,10.0,NW,4.6,-,N/A,,Clear,310,2012-11-20 01:32:00
7:53 PM,46.4,37.4,71,30.06,10.0,NW,6.9,-,N/A,,Clear,310,2012-11-20 01:53:00
8:13 PM,44.6,37.4,76,30.06,10.0,NW,4.6,-,N/A,,Clear,310,2012-11-20 02:13:00
8:32 PM,44.6,37.4,76,30.06,10.0,NW,6.9,-,N/A,,Clear,310,2012-11-20 02:32:00
9:13 PM,44.6,39.2,81,30.07,7.0,NW,9.2,-,N/A,,Clear,310,2012-11-20 03:13:00
9:32 PM,44.6,39.2,81,30.07,10.0,NW,11.5,-,N/A,,Clear,310,2012-11-20 03:32:00
9:53 PM,42.8,37.4,81,30.07,10.0,NW,9.2,-,N/A,,Clear,320,2012-11-20 03:53:00
10:13 PM,42.8,37.4,81,30.07,5.0,WNW,8.1,-,N/A,,Clear,300,2012-11-20 04:13:00
10:32 PM,42.8,37.4,81,30.08,10.0,NW,8.1,-,N/A,,Clear,310,2012-11-20 04:32:00
10:53 PM,42.8,37.4,81,30.08,10.0,NW,9.2,-,N/A,,Clear,310,2012-11-20 04:53:00
11:13 PM,41.0,37.4,87,30.09,4.0,NW,8.1,-,N/A,,Clear,310,2012-11-20 05:13:00
11:33 PM,41.0,37.4,87,30.09,7.0,NW,9.2,-,N/A,,Clear,310,2012-11-20 05:33:00
11:53 PM,39.2,35.6,87,30.10,7.0,NW,6.9,-,N/A,,Clear,320,2012-11-20 05:53:00